FW2402 Weather Reports


time (UTC)temp
C
wind
direction
speed
KPH
gust
KPH
rain 1hr
cm
rain 24hr
cm
rain mn
cm
humidity
%
barometer
mb
20260509031021 23 0 0.0 1.6 0.00 0.00 0.00 87 1014.2
20260509030523 23 0 0.0 0.0 0.00 0.00 0.00 87 1014.2
20260509030039 23 0 0.0 0.0 0.00 0.00 0.00 86 1014.2
20260509025519 24 0 0.0 0.0 0.00 0.00 0.00 86 1014.2
20260509025016 24 0 0.0 0.0 0.00 0.00 0.00 86 1014.1
20260509024540 24 0 0.0 0.0 0.00 0.00 0.00 86 1014.1
20260509024017 24 0 0.0 0.0 0.00 0.00 0.00 85 1014.3
20260509023516 24 0 0.0 0.0 0.00 0.00 0.00 85 1014.1
20260509023041 25 0 0.0 1.6 0.00 0.00 0.00 84 1014.1
20260509022523 25 0 0.0 4.8 0.00 0.00 0.00 84 1014.1
20260509022020 25 0 0.0 4.8 0.00 0.00 0.00 83 1014.1
20260509021537 25 284 1.6 4.8 0.00 0.00 0.00 83 1014.0
20260509021017 25 0 1.6 6.4 0.00 0.00 0.00 82 1014.0
20260509020521 25 279 1.6 6.4 0.00 0.00 0.00 82 1013.9
20260509020045 25 0 0.0 6.4 0.00 0.00 0.00 81 1013.7
20260509015516 25 0 0.0 6.4 0.00 0.00 0.00 81 1013.7
20260509015015 25 284 1.6 11.3 0.00 0.00 0.00 80 1013.7
20260509014535 25 291 1.6 11.3 0.00 0.00 0.00 79 1013.5
20260509014016 26 276 1.6 9.7 0.00 0.00 0.00 79 1013.5
20260509013516 26 279 1.6 11.3 0.00 0.00 0.00 78 1013.5
20260509013040 26 274 1.6 11.3 0.00 0.00 0.00 77 1013.5
20260509012521 26 276 4.8 11.3 0.00 0.00 0.00 77 1013.4
20260509012016 26 267 3.2 9.7 0.00 0.00 0.00 77 1013.3
20260509011546 26 294 3.2 9.7 0.00 0.00 0.00 77 1013.3
20260509011021 26 0 3.2 11.3 0.00 0.00 0.00 76 1013.3
20260509010518 26 250 4.8 11.3 0.00 0.00 0.00 76 1013.2
20260509010042 26 0 1.6 4.8 0.00 0.00 0.00 75 1013.2
20260509005517 26 276 0.0 12.9 0.00 0.00 0.00 75 1013.1
20260509005017 26 275 3.2 17.7 0.00 0.00 0.00 74 1013.1
20260509004547 26 266 4.8 17.7 0.00 0.00 0.00 73 1012.9
20260509004017 26 309 8.0 17.7 0.00 0.00 0.00 73 1012.9
20260509003516 26 281 6.4 14.5 0.00 0.00 0.00 72 1012.8
20260509003036 26 305 4.8 17.7 0.00 0.00 0.00 72 1012.8
20260509002516 27 288 8.0 17.7 0.00 0.00 0.00 71 1012.7
20260509002021 27 279 6.4 17.7 0.00 0.00 0.00 70 1012.5
20260509001541 27 273 9.7 17.7 0.00 0.00 0.00 70 1012.5
20260509001019 27 292 8.0 16.1 0.00 0.00 0.00 69 1012.4
20260509000519 27 252 9.7 16.1 0.00 0.00 0.00 68 1012.2
20260509000053 27 270 6.4 17.7 0.00 0.00 0.00 67 1012.1
20260508235517 28 280 9.7 19.3 0.00 0.00 0.00 66 1012.1
20260508235016 28 300 11.3 24.1 0.00 0.00 0.00 66 1011.8
20260508234538 28 284 14.5 24.1 0.00 0.00 0.00 65 1011.8
20260508234016 28 266 12.9 24.1 0.00 0.00 0.00 63 1011.6
20260508233516 28 266 16.1 24.1 0.00 0.00 0.00 62 1011.5
20260508233037 29 273 14.5 22.5 0.00 0.00 0.00 60 1011.4
20260508232516 29 298 14.5 24.1 0.00 0.00 0.00 60 1011.4
20260508232020 30 313 14.5 24.1 0.00 0.00 0.00 60 1011.3
20260508231534 30 268 11.3 19.3 0.00 0.00 0.00 60 1011.2
20260508231016 30 272 12.9 24.1 0.00 0.00 0.00 59 1011.0
20260508230521 30 273 12.9 27.4 0.00 0.00 0.00 59 1010.9
20260508230041 30 259 16.1 27.4 0.00 0.00 0.00 58 1010.8
20260508225520 31 263 17.7 25.7 0.00 0.00 0.00 57 1010.8
20260508225022 31 256 14.5 25.7 0.00 0.00 0.00 56 1010.7
20260508224541 31 267 17.7 25.7 0.00 0.00 0.00 53 1010.7
20260508224017 31 267 11.3 25.7 0.00 0.00 0.00 54 1010.6
20260508223516 31 291 16.1 25.7 0.00 0.00 0.00 53 1010.4
20260508223039 31 290 12.9 22.5 0.00 0.00 0.00 54 1010.4
20260508222517 32 250 11.3 25.7 0.00 0.00 0.00 53 1010.3
20260508222016 32 288 16.1 25.7 0.00 0.00 0.00 54 1010.4
20260508221539 32 273 11.3 20.9 0.00 0.00 0.00 53 1010.3
20260508221016 32 281 12.9 19.3 0.00 0.00 0.00 52 1010.2
20260508220516 32 259 8.0 19.3 0.00 0.00 0.00 52 1010.2
20260508220045 32 278 9.7 20.9 0.00 0.00 0.00 52 1010.1
20260508215520 32 301 11.3 20.9 0.00 0.00 0.00 51 1010.1
20260508215020 32 292 11.3 17.7 0.00 0.00 0.00 50 1010.0
20260508214532 32 283 9.7 16.1 0.00 0.00 0.00 51 1009.9
20260508214018 33 307 9.7 20.9 0.00 0.00 0.00 52 1010.0
20260508213519 32 243 11.3 20.9 0.00 0.00 0.00 51 1010.0
20260508213046 33 273 14.5 19.3 0.00 0.00 0.00 49 1009.9
20260508212519 33 174 4.8 20.9 0.00 0.00 0.00 47 1010.0
20260508212021 33 246 11.3 22.5 0.00 0.00 0.00 48 1010.0
20260508211536 33 266 9.7 22.5 0.00 0.00 0.00 48 1010.0
20260508211022 33 283 14.5 20.9 0.00 0.00 0.00 48 1009.9
20260508210520 33 252 8.0 24.1 0.00 0.00 0.00 48 1009.9
20260508210036 33 264 14.5 24.1 0.00 0.00 0.00 47 1010.2
20260508205519 33 263 4.8 19.3 0.00 0.00 0.00 45 1010.0
20260508205018 33 280 8.0 22.5 0.00 0.00 0.00 46 1010.1
20260508204537 33 255 16.1 22.5 0.00 0.00 0.00 46 1010.0
20260508204018 34 244 11.3 22.5 0.00 0.00 0.00 47 1010.1
20260508203519 34 272 11.3 22.5 0.00 0.00 0.00 46 1010.2
20260508203046 34 247 4.8 22.5 0.00 0.00 0.00 45 1010.4
20260508202521 34 252 12.9 20.9 0.00 0.00 0.00 45 1010.3
20260508202016 34 246 9.7 20.9 0.00 0.00 0.00 45 1010.4
20260508201541 33 295 3.2 12.9 0.00 0.00 0.00 47 1010.6
20260508201020 32 272 3.2 12.9 0.00 0.00 0.00 48 1010.6
20260508200520 33 288 8.0 19.3 0.00 0.00 0.00 45 1010.8
20260508200050 33 272 6.4 20.9 0.00 0.00 0.00 45 1011.0
20260508195519 34 273 12.9 24.1 0.00 0.00 0.00 44 1011.0
20260508195019 34 242 14.5 25.7 0.00 0.00 0.00 45 1011.0
20260508194540 33 284 6.4 25.7 0.00 0.00 0.00 45 1011.1
20260508194019 34 282 11.3 24.1 0.00 0.00 0.00 46 1011.1
20260508193519 33 278 3.2 19.3 0.00 0.00 0.00 45 1011.1
20260508193037 33 249 8.0 19.3 0.00 0.00 0.00 44 1011.2
20260508192519 34 293 8.0 19.3 0.00 0.00 0.00 42 1011.2
20260508192017 34 268 4.8 17.7 0.00 0.00 0.00 42 1011.5
20260508191536 33 269 4.8 19.3 0.00 0.00 0.00 45 1011.5
20260508191018 33 244 11.3 19.3 0.00 0.00 0.00 45 1011.6
20260508190518 33 0 9.7 17.7 0.00 0.00 0.00 46 1011.6
20260508190042 33 243 0.0 9.7 0.00 0.00 0.00 47 1011.7
20260508185518 33 234 1.6 19.3 0.00 0.00 0.00 46 1011.9
20260508185018 33 290 3.2 19.3 0.00 0.00 0.00 46 1012.0
20260508184535 33 341 9.7 19.3 0.00 0.00 0.00 48 1012.1
20260508184018 33 260 4.8 12.9 0.00 0.00 0.00 47 1012.2
20260508183517 33 252 3.2 16.1 0.00 0.00 0.00 46 1012.3
20260508183039 33 0 8.0 16.1 0.00 0.00 0.00 48 1012.4
20260508182518 32 259 6.4 16.1 0.00 0.00 0.00 50 1012.5
20260508182024 32 254 9.7 16.1 0.00 0.00 0.00 52 1012.7
20260508181604 32 0 0.0 14.5 0.00 0.00 0.00 50 1012.8
20260508181019 33 281 6.4 16.1 0.00 0.00 0.00 48 1012.8
20260508180518 33 296 0.0 22.5 0.00 0.00 0.00 50 1012.9
20260508180041 33 255 12.9 22.5 0.00 0.00 0.00 48 1012.9
20260508175517 33 273 6.4 19.3 0.00 0.00 0.00 50 1013.0
20260508175017 33 0 4.8 12.9 0.00 0.00 0.00 51 1013.0
20260508174538 31 282 6.4 14.5 0.00 0.00 0.00 55 1013.0
20260508174018 31 247 4.8 14.5 0.00 0.00 0.00 55 1013.1
20260508173518 31 0 3.2 11.3 0.00 0.00 0.00 55 1013.2
20260508173035 32 46 1.6 16.1 0.00 0.00 0.00 53 1013.2
20260508172517 32 136 6.4 19.3 0.00 0.00 0.00 53 1013.3
20260508172022 31 246 8.0 19.3 0.00 0.00 0.00 55 1013.4
20260508171531 32 224 6.4 17.7 0.00 0.00 0.00 52 1013.4
20260508171017 32 106 1.6 20.9 0.00 0.00 0.00 51 1013.5
20260508170522 32 0 8.0 20.9 0.00 0.00 0.00 53 1013.6
20260508170041 32 232 4.8 19.3 0.00 0.00 0.00 56 1013.7
20260508165516 30 265 8.0 19.3 0.00 0.00 0.00 59 1013.8
20260508165019 31 246 6.4 19.3 0.00 0.00 0.00 57 1013.9
20260508164541 31 239 8.0 20.9 0.00 0.00 0.00 55 1013.9
20260508164020 31 260 9.7 20.9 0.00 0.00 0.00 55 1014.0
20260508163516 31 229 8.0 19.3 0.00 0.00 0.00 57 1014.0
20260508163037 31 225 1.6 17.7 0.00 0.00 0.00 58 1014.1
20260508162520 31 285 8.0 17.7 0.00 0.00 0.00 61 1014.1
20260508162020 31 253 4.8 14.5 0.00 0.00 0.00 61 1014.3
20260508161537 31 259 3.2 17.7 0.00 0.00 0.00 62 1014.3
20260508161020 31 286 11.3 17.7 0.00 0.00 0.00 63 1014.4
20260508160516 30 298 6.4 16.1 0.00 0.00 0.00 64 1014.4
20260508160039 30 252 6.4 17.7 0.00 0.00 0.00 64 1014.5
20260508155517 30 283 6.4 17.7 0.00 0.00 0.00 63 1014.6
20260508155020 31 348 3.2 16.1 0.00 0.00 0.00 65 1014.7
20260508154537 30 295 6.4 16.1 0.00 0.00 0.00 67 1014.8
20260508154021 29 268 4.8 17.7 0.00 0.00 0.00 70 1014.9
20260508153521 28 321 8.0 19.3 0.00 0.00 0.00 71 1014.9
20260508153041 28 265 11.3 19.3 0.00 0.00 0.00 71 1014.9
20260508152521 28 258 9.7 19.3 0.00 0.00 0.00 70 1015.0
20260508152016 28 263 6.4 16.1 0.00 0.00 0.00 68 1014.9
20260508151542 28 271 1.6 19.3 0.00 0.00 0.00 68 1014.9
20260508151020 30 265 8.0 19.3 0.00 0.00 0.00 66 1014.9
20260508150523 29 255 8.0 19.3 0.00 0.00 0.00 68 1014.9
20260508150037 28 247 3.2 14.5 0.00 0.00 0.00 70 1015.0
20260508145520 29 263 4.8 14.5 0.00 0.00 0.00 70 1015.0
20260508145021 28 229 8.0 14.5 0.00 0.00 0.00 72 1015.0
20260508144537 27 300 4.8 14.5 0.00 0.00 0.00 75 1015.0
20260508144016 27 259 1.6 14.5 0.00 0.00 0.00 75 1015.0
20260508143520 27 275 6.4 14.5 0.00 0.00 0.00 75 1015.0
20260508143037 27 271 8.0 14.5 0.00 0.00 0.00 74 1015.0
20260508142520 28 258 6.4 16.1 0.00 0.00 0.00 75 1014.9
20260508142017 27 261 6.4 16.1 0.00 0.00 0.00 78 1014.9
20260508141546 27 259 9.7 16.1 0.00 0.00 0.00 77 1015.0
20260508141017 27 277 9.7 16.1 0.00 0.00 0.00 78 1015.0
20260508140516 27 277 3.2 12.9 0.00 0.00 0.00 79 1015.0
20260508140052 27 274 1.6 24.1 0.00 0.00 0.00 80 1014.9
20260508135524 27 277 8.0 24.1 0.00 0.00 0.00 80 1014.9
20260508135018 27 256 4.8 12.9 0.00 0.00 0.00 82 1014.9
20260508134538 26 317 4.8 12.9 0.00 0.00 0.00 83 1015.0
20260508134017 26 263 6.4 20.9 0.00 0.00 0.00 84 1015.0
20260508133517 26 282 8.0 20.9 0.00 0.00 0.00 84 1015.1
20260508133111 25 278 4.8 19.3 0.00 0.00 0.00 86 1015.2
20260508132520 25 295 3.2 9.7 0.00 0.00 0.00 87 1015.2
20260508132017 25 279 4.8 11.3 0.00 0.00 0.00 88 1015.1
20260508131538 25 247 4.8 11.3 0.00 0.00 0.00 89 1015.1
20260508131018 25 304 3.2 9.7 0.00 0.00 0.00 89 1015.2
20260508130517 25 270 1.6 4.8 0.00 0.00 0.00 90 1015.1
20260508130035 24 270 0.0 4.8 0.00 0.00 0.00 91 1015.0
20260508125517 24 270 0.0 4.8 0.00 0.00 0.00 91 1015.0
20260508125017 24 271 1.6 4.8 0.00 0.00 0.00 91 1015.0
20260508124531 24 244 0.0 4.8 0.00 0.00 0.00 92 1015.1
20260508124017 23 0 0.0 4.8 0.00 0.00 0.00 93 1015.0
20260508123517 23 254 1.6 4.8 0.00 0.00 0.00 93 1015.0
20260508123039 23 264 1.6 3.2 0.00 0.00 0.00 93 1014.9
20260508122516 23 0 0.0 1.6 0.00 0.00 0.00 94 1014.9
20260508122017 23 0 0.0 3.2 0.00 0.00 0.00 94 1014.7
20260508121540 22 0 0.0 3.2 0.00 0.00 0.00 94 1014.8
20260508121018 22 0 0.0 1.6 0.00 0.00 0.00 95 1014.7
20260508120517 22 0 0.0 1.6 0.00 0.00 0.00 95 1014.6
20260508120042 22 0 0.0 1.6 0.00 0.00 0.00 95 1014.4
20260508115518 22 0 0.0 4.8 0.00 0.00 0.00 95 1014.5
20260508115018 22 0 0.0 4.8 0.00 0.00 0.00 95 1014.4
20260508114537 22 265 0.0 3.2 0.00 0.00 0.00 95 1014.3
20260508114018 21 0 0.0 1.6 0.00 0.00 0.00 95 1014.4
20260508113520 21 0 0.0 3.2 0.00 0.00 0.00 95 1014.2
20260508113035 21 0 0.0 3.2 0.00 0.00 0.00 95 1014.0
20260508112516 21 0 0.0 0.0 0.00 0.00 0.00 96 1013.9
20260508112017 21 0 0.0 0.0 0.00 0.00 0.00 95 1013.8
20260508111552 21 0 0.0 0.0 0.00 0.00 0.00 95 1013.7
20260508111017 21 0 0.0 0.0 0.00 0.00 0.00 96 1013.7
20260508110522 21 0 0.0 0.0 0.00 0.00 0.00 95 1013.8
20260508110056 21 0 0.0 0.0 0.00 0.00 0.00 95 1013.6
20260508105517 21 0 0.0 0.0 0.00 0.00 0.00 95 1013.5
20260508105017 20 0 0.0 0.0 0.00 0.00 0.00 96 1013.5
20260508104538 20 0 0.0 0.0 0.00 0.00 0.00 95 1013.4
20260508104017 20 0 0.0 0.0 0.00 0.00 0.00 95 1013.4
20260508103516 20 0 0.0 0.0 0.00 0.00 0.00 95 1013.4
20260508103050 20 0 0.0 0.0 0.00 0.00 0.00 95 1013.1
20260508102517 20 0 0.0 0.0 0.00 0.00 0.00 95 1013.0
20260508102017 20 0 0.0 0.0 0.00 0.00 0.00 95 1012.9
20260508101541 20 0 0.0 0.0 0.00 0.00 0.00 95 1013.0
20260508101020 20 0 0.0 0.0 0.00 0.00 0.00 95 1012.8
20260508100517 20 0 0.0 0.0 0.00 0.00 0.00 95 1012.7
20260508100035 20 0 0.0 0.0 0.00 0.00 0.00 95 1012.8
20260508095517 20 0 0.0 0.0 0.00 0.00 0.00 95 1012.8
20260508095016 20 0 0.0 0.0 0.00 0.00 0.00 95 1012.7
20260508094539 20 0 0.0 0.0 0.00 0.00 0.00 95 1012.7
20260508094018 20 0 0.0 0.0 0.00 0.00 0.00 95 1012.7
20260508093517 20 0 0.0 0.0 0.00 0.00 0.00 95 1012.7
20260508093041 20 0 0.0 0.0 0.00 0.00 0.00 95 1012.6
20260508092516 20 0 0.0 0.0 0.00 0.00 0.00 95 1012.6
20260508092016 20 0 0.0 0.0 0.00 0.00 0.00 95 1012.6
20260508091540 20 0 0.0 0.0 0.00 0.00 0.00 95 1012.7
20260508091016 20 0 0.0 0.0 0.00 0.00 0.00 95 1012.6
20260508090518 20 0 0.0 0.0 0.00 0.00 0.00 95 1012.6
20260508090039 20 0 0.0 0.0 0.00 0.00 0.00 95 1012.6
20260508085517 20 0 0.0 0.0 0.00 0.00 0.00 95 1012.7
20260508085017 20 0 0.0 0.0 0.00 0.00 0.00 95 1012.6
20260508084535 21 0 0.0 0.0 0.00 0.00 0.00 95 1012.7
20260508084020 20 0 0.0 0.0 0.00 0.00 0.00 95 1012.7
20260508083518 21 0 0.0 0.0 0.00 0.00 0.00 95 1012.7
20260508083037 21 0 0.0 0.0 0.00 0.00 0.00 95 1012.7
20260508082518 21 0 0.0 0.0 0.00 0.00 0.00 95 1012.7
20260508082017 20 0 0.0 0.0 0.00 0.00 0.00 95 1012.8
20260508081543 20 0 0.0 0.0 0.00 0.00 0.00 95 1012.7
20260508081016 20 0 0.0 0.0 0.00 0.00 0.00 95 1012.6
20260508080516 21 0 0.0 0.0 0.00 0.00 0.00 95 1012.7
20260508080040 20 0 0.0 0.0 0.00 0.00 0.00 95 1012.7
20260508075517 20 0 0.0 0.0 0.00 0.00 0.00 95 1012.6
20260508075016 20 0 0.0 0.0 0.00 0.00 0.00 95 1012.7
20260508074539 20 0 0.0 0.0 0.00 0.00 0.00 95 1012.7
20260508074016 20 0 0.0 0.0 0.00 0.00 0.00 94 1012.7
20260508073516 20 0 0.0 0.0 0.00 0.00 0.00 95 1012.7
20260508073038 20 0 0.0 0.0 0.00 0.00 0.00 94 1012.9
20260508072516 20 0 0.0 0.0 0.00 0.00 0.00 94 1012.7
20260508072016 21 0 0.0 0.0 0.00 0.00 0.00 94 1012.8
20260508071536 20 0 0.0 0.0 0.00 0.00 0.00 94 1012.8
20260508071022 20 0 0.0 0.0 0.00 0.00 0.00 94 1012.9
20260508070517 20 0 0.0 0.0 0.00 0.00 0.00 94 1012.9
20260508070036 20 0 0.0 0.0 0.00 0.00 0.00 94 1012.8
20260508065516 20 0 0.0 0.0 0.00 0.00 0.00 93 1012.9
20260508065016 20 0 0.0 0.0 0.00 0.00 0.00 93 1012.9
20260508064551 20 0 0.0 0.0 0.00 0.00 0.00 94 1013.0
20260508064017 21 0 0.0 0.0 0.00 0.00 0.00 94 1013.1
20260508063517 21 0 0.0 0.0 0.00 0.00 0.00 94 1013.1
20260508063041 20 0 0.0 0.0 0.00 0.00 0.00 94 1013.1
20260508062516 20 0 0.0 0.0 0.00 0.00 0.00 93 1013.3
20260508062016 20 0 0.0 0.0 0.00 0.00 0.00 93 1013.2
20260508061537 20 0 0.0 0.0 0.00 0.00 0.00 93 1013.3
20260508061023 20 0 0.0 0.0 0.00 0.00 0.00 93 1013.4
20260508060517 20 0 0.0 0.0 0.00 0.00 0.00 93 1013.4
20260508060038 21 0 0.0 0.0 0.00 0.00 0.00 93 1013.4
20260508055516 21 0 0.0 0.0 0.00 0.00 0.00 93 1013.4
20260508055020 21 0 0.0 0.0 0.00 0.00 0.00 93 1013.5
20260508054537 21 0 0.0 0.0 0.00 0.00 0.00 93 1013.5
20260508054021 21 0 0.0 0.0 0.00 0.00 0.00 93 1013.5
20260508053520 21 0 0.0 0.0 0.00 0.00 0.00 93 1013.5
20260508053036 21 0 0.0 0.0 0.00 0.00 0.00 92 1013.6
20260508052520 21 0 0.0 0.0 0.00 0.00 0.00 92 1013.6
20260508052016 21 0 0.0 0.0 0.00 0.00 0.00 92 1013.5
20260508051535 21 0 0.0 0.0 0.00 0.00 0.00 92 1013.6
20260508051020 21 0 0.0 0.0 0.00 0.00 0.00 92 1013.5
20260508050517 21 0 0.0 0.0 0.00 0.00 0.00 92 1013.6
20260508050039 21 0 0.0 0.0 0.00 0.00 0.00 92 1013.6
20260508045516 21 0 0.0 0.0 0.00 0.00 0.00 92 1013.6
20260508045016 21 0 0.0 0.0 0.00 0.00 0.00 92 1013.7
20260508044538 21 0 0.0 0.0 0.00 0.00 0.00 92 1013.6
20260508044017 21 0 0.0 0.0 0.00 0.00 0.00 91 1013.7
20260508043516 21 0 0.0 0.0 0.00 0.00 0.00 91 1013.9
20260508043041 21 0 0.0 0.0 0.00 0.00 0.00 91 1013.8
20260508042516 21 0 0.0 0.0 0.00 0.00 0.00 91 1013.8
20260508042016 21 0 0.0 3.2 0.00 0.00 0.00 91 1013.9
20260508041537 21 0 0.0 3.2 0.00 0.00 0.00 90 1013.8
20260508041020 21 265 1.6 3.2 0.00 0.00 0.00 90 1013.8
20260508040521 21 0 0.0 0.0 0.00 0.00 0.00 90 1013.8
20260508040040 22 0 0.0 3.2 0.00 0.00 0.00 90 1013.8
20260508035521 22 0 0.0 3.2 0.00 0.00 0.00 90 1013.8
20260508035021 22 0 1.6 3.2 0.00 0.00 0.00 90 1013.9
20260508034534 22 265 1.6 3.2 0.00 0.00 0.00 89 1013.8
20260508034019 22 0 0.0 6.4 0.00 0.00 0.00 89 1013.9
20260508033516 22 265 1.6 6.4 0.00 0.00 0.00 89 1013.9
20260508033041 22 252 1.6 6.4 0.00 0.00 0.00 89 1013.8
20260508032522 22 267 3.2 6.4 0.00 0.00 0.00 89 1013.9
20260508032017 22 270 3.2 4.8 0.00 0.00 0.00 88 1013.8
20260508031538 22 270 3.2 4.8 0.00 0.00 0.00 88 1013.7